When you browse on this site, cookies collect data to enhance your experience and personalize the content and advertising you see.
Visit our Privacy Policy to learn more. By continuing to use the site, you agree to this use of cookies and data.
  • In Latvia
  • List of Countries
  • For 7 days
  • Water Temperature
  • Weather Map
  • Weather Widgets
  • user-avatar
    Login

    Hourly Weather Kingston

    Today, 29 May, Friday

    Time Temperature Precipitation Wind Pressure Humidity
    00:00 +23°C° 0.1 mm 1 mps 706 mmHg 92%
    01:00 +22°C° 0.1 mm 1 mps 706 mmHg 92%
    02:00 +22°C° 0 mm 1 mps 706 mmHg 92%
    03:00 +22°C° 0 mm 1 mps 705 mmHg 92%
    04:00 +22°C° 0 mm 1 mps 705 mmHg 92%
    05:00 +23°C° 0 mm 1 mps 705 mmHg 90%
    06:00 +23°C° 0 mm 1 mps 706 mmHg 88%
    07:00 +24°C° 0 mm 1 mps 706 mmHg 87%
    08:00 +26°C° 0 mm 1 mps 706 mmHg 77%
    09:00 +28°C° 0 mm 1 mps 707 mmHg 67%
    10:00 +30°C° 0 mm 1 mps 707 mmHg 58%
    11:00 +29°C° 0.5 mm 2 mps 707 mmHg 62%
    12:00 +29°C° 0.5 mm 2 mps 707 mmHg 66%
    13:00 +28°C° 0.5 mm 3 mps 706 mmHg 71%
    14:00 +28°C° 1 mm 2 mps 706 mmHg 72%
    15:00 +27°C° 1 mm 2 mps 705 mmHg 73%
    16:00 +27°C° 1 mm 2 mps 705 mmHg 75%
    17:00 +26°C° 0.9 mm 1 mps 705 mmHg 78%
    18:00 +25°C° 0.9 mm 1 mps 705 mmHg 82%
    19:00 +24°C° 0.9 mm 1 mps 706 mmHg 86%
    20:00 +23°C° 0.2 mm 1 mps 706 mmHg 87%
    21:00 +23°C° 0.2 mm 1 mps 706 mmHg 88%
    22:00 +23°C° 0.2 mm 1 mps 706 mmHg 89%
    23:00 +22°C° 0 mm 1 mps 706 mmHg 89%

    Tomorrow, 30 May, Saturday

    Time Temperature Precipitation Wind Pressure Humidity
    00:00 +22°C° 0 mm 1 mps 706 mmHg 89%
    01:00 +22°C° 0 mm 1 mps 705 mmHg 89%
    02:00 +22°C° 0.1 mm 1 mps 705 mmHg 89%
    03:00 +22°C° 0.1 mm 1 mps 705 mmHg 90%
    04:00 +22°C° 0.1 mm 1 mps 705 mmHg 90%
    05:00 +22°C° 0 mm 1 mps 705 mmHg 88%
    06:00 +23°C° 0 mm 1 mps 706 mmHg 86%
    07:00 +24°C° 0 mm 1 mps 706 mmHg 83%
    08:00 +25°C° 0 mm 2 mps 706 mmHg 75%
    09:00 +27°C° 0 mm 2 mps 707 mmHg 66%
    10:00 +29°C° 0 mm 3 mps 707 mmHg 57%
    11:00 +29°C° 0.2 mm 3 mps 707 mmHg 59%
    12:00 +29°C° 0.2 mm 3 mps 707 mmHg 61%
    13:00 +29°C° 0.2 mm 4 mps 706 mmHg 62%
    14:00 +29°C° 0.2 mm 4 mps 706 mmHg 62%
    15:00 +29°C° 0.2 mm 3 mps 705 mmHg 62%
    16:00 +28°C° 0.2 mm 3 mps 705 mmHg 61%
    17:00 +27°C° 0 mm 3 mps 705 mmHg 68%
    18:00 +25°C° 0 mm 2 mps 705 mmHg 74%
    19:00 +24°C° 0 mm 2 mps 705 mmHg 80%
    20:00 +24°C° 0 mm 2 mps 705 mmHg 83%
    21:00 +23°C° 0 mm 1 mps 706 mmHg 85%
    22:00 +23°C° 0 mm 1 mps 706 mmHg 88%
    23:00 +22°C° 0 mm 1 mps 706 mmHg 88%

    Day after tomorrow, 31 May, Sunday

    Time Temperature Precipitation Wind Pressure Humidity
    00:00 +22°C° 0 mm 1 mps 706 mmHg 88%
    01:00 +22°C° 0 mm 1 mps 706 mmHg 89%
    02:00 +22°C° 0 mm 1 mps 705 mmHg 88%
    03:00 +22°C° 0 mm 1 mps 705 mmHg 87%
    04:00 +22°C° 0 mm 1 mps 705 mmHg 87%
    05:00 +22°C° 0 mm 1 mps 705 mmHg 83%
    06:00 +23°C° 0 mm 1 mps 706 mmHg 80%
    07:00 +24°C° 0 mm 1 mps 706 mmHg 77%
    08:00 +26°C° 0 mm 2 mps 707 mmHg 70%
    09:00 +28°C° 0 mm 2 mps 707 mmHg 63%
    10:00 +30°C° 0 mm 3 mps 708 mmHg 56%
    11:00 +29°C° 0.3 mm 3 mps 708 mmHg 60%
    12:00 +29°C° 0.3 mm 3 mps 707 mmHg 63%
    13:00 +29°C° 0.3 mm 4 mps 707 mmHg 66%
    14:00 +29°C° 0.4 mm 4 mps 707 mmHg 67%
    15:00 +28°C° 0.4 mm 4 mps 706 mmHg 68%
    16:00 +28°C° 0.4 mm 3 mps 706 mmHg 69%
    17:00 +27°C° 0.3 mm 3 mps 706 mmHg 75%
    18:00 +25°C° 0.3 mm 2 mps 706 mmHg 81%
    19:00 +24°C° 0.3 mm 2 mps 706 mmHg 87%
    20:00 +24°C° 0.1 mm 1 mps 706 mmHg 88%
    21:00 +23°C° 0.1 mm 1 mps 707 mmHg 89%
    22:00 +23°C° 0.1 mm 1 mps 707 mmHg 90%
    23:00 +23°C° 0 mm 1 mps 707 mmHg 91%

    1 June, Monday

    Time Temperature Precipitation Wind Pressure Humidity
    00:00 +22°C° 0 mm 1 mps 706 mmHg 91%
    01:00 +22°C° 0 mm 1 mps 706 mmHg 91%
    02:00 +22°C° 0 mm 1 mps 706 mmHg 91%
    03:00 +22°C° 0 mm 1 mps 706 mmHg 90%
    04:00 +22°C° 0 mm 1 mps 705 mmHg 90%
    05:00 +22°C° 0 mm 1 mps 706 mmHg 88%
    06:00 +23°C° 0 mm 1 mps 706 mmHg 85%
    07:00 +24°C° 0 mm 1 mps 706 mmHg 83%
    08:00 +26°C° 0 mm 1 mps 707 mmHg 73%
    09:00 +28°C° 0 mm 2 mps 708 mmHg 63%
    10:00 +30°C° 0 mm 2 mps 708 mmHg 53%
    11:00 +30°C° 0 mm 3 mps 708 mmHg 52%
    12:00 +32°C° 0 mm 4 mps 708 mmHg 51%
    13:00 +32°C° 0 mm 4 mps 707 mmHg 49%
    14:00 +30°C° 0 mm 4 mps 707 mmHg 52%
    15:00 +30°C° 0 mm 4 mps 707 mmHg 55%
    16:00 +29°C° 0 mm 4 mps 706 mmHg 57%
    17:00 +27°C° 0 mm 3 mps 706 mmHg 65%
    18:00 +26°C° 0 mm 2 mps 706 mmHg 72%
    19:00 +24°C° 0 mm 2 mps 706 mmHg 80%
    20:00 +24°C° 0 mm 2 mps 706 mmHg 80%
    21:00 +23°C° 0 mm 1 mps 707 mmHg 81%
    22:00 +23°C° 0 mm 1 mps 707 mmHg 81%
    23:00 +23°C° 0 mm 1 mps 707 mmHg 81%

    2 June, Tuesday

    Time Temperature Precipitation Wind Pressure Humidity
    00:00 +22°C° 0 mm 1 mps 706 mmHg 82%
    01:00 +22°C° 0 mm 1 mps 706 mmHg 82%
    02:00 +22°C° 0 mm 1 mps 706 mmHg 81%
    03:00 +22°C° 0 mm 1 mps 705 mmHg 81%
    04:00 +22°C° 0 mm 1 mps 705 mmHg 81%
    05:00 +23°C° 0 mm 1 mps 705 mmHg 79%
    06:00 +23°C° 0 mm 1 mps 706 mmHg 76%
    07:00 +24°C° 0 mm 1 mps 706 mmHg 74%
    08:00 +26°C° 0 mm 1 mps 707 mmHg 67%
    09:00 +28°C° 0 mm 2 mps 707 mmHg 59%
    10:00 +30°C° 0 mm 2 mps 708 mmHg 52%
    11:00 +30°C° 0.1 mm 3 mps 707 mmHg 55%
    12:00 +30°C° 0.1 mm 3 mps 707 mmHg 57%
    13:00 +30°C° 0.1 mm 4 mps 707 mmHg 60%
    14:00 +29°C° 0.8 mm 4 mps 706 mmHg 63%
    15:00 +28°C° 0.8 mm 3 mps 706 mmHg 67%
    16:00 +28°C° 0.8 mm 3 mps 705 mmHg 70%
    17:00 +27°C° 0.4 mm 3 mps 705 mmHg 75%
    18:00 +25°C° 0.4 mm 2 mps 705 mmHg 80%
    19:00 +24°C° 0.4 mm 2 mps 705 mmHg 86%
    20:00 +24°C° 0.5 mm 2 mps 706 mmHg 86%
    21:00 +23°C° 0.5 mm 1 mps 706 mmHg 87%
    22:00 +23°C° 0.5 mm 1 mps 706 mmHg 88%
    23:00 +22°C° 0 mm 1 mps 706 mmHg 88%

    3 June, Wednesday

    Time Temperature Precipitation Wind Pressure Humidity
    00:00 +22°C° 0 mm 1 mps 706 mmHg 88%
    01:00 +22°C° 0 mm 1 mps 705 mmHg 88%
    02:00 +22°C° 0 mm 1 mps 705 mmHg 88%
    03:00 +22°C° 0 mm 1 mps 705 mmHg 87%
    04:00 +22°C° 0 mm 1 mps 704 mmHg 87%
    05:00 +22°C° 0 mm 1 mps 705 mmHg 85%
    06:00 +23°C° 0 mm 1 mps 705 mmHg 83%
    07:00 +24°C° 0 mm 1 mps 705 mmHg 80%
    08:00 +26°C° 0 mm 2 mps 706 mmHg 71%
    09:00 +28°C° 0 mm 2 mps 706 mmHg 61%
    10:00 +30°C° 0 mm 3 mps 707 mmHg 52%
    11:00 +30°C° 0 mm 3 mps 707 mmHg 51%
    12:00 +30°C° 0 mm 4 mps 706 mmHg 49%
    13:00 +30°C° 0 mm 5 mps 706 mmHg 48%
    14:00 +30°C° 0 mm 4 mps 705 mmHg 51%
    15:00 +29°C° 0 mm 4 mps 705 mmHg 55%
    16:00 +28°C° 0 mm 4 mps 705 mmHg 58%
    17:00 +27°C° 0 mm 3 mps 705 mmHg 65%
    18:00 +26°C° 0 mm 3 mps 705 mmHg 72%
    19:00 +24°C° 0 mm 2 mps 705 mmHg 78%
    20:00 +24°C° 0 mm 2 mps 705 mmHg 80%
    21:00 +23°C° 0 mm 2 mps 705 mmHg 83%
    22:00 +23°C° 0 mm 2 mps 705 mmHg 85%
    23:00 +21°C° 0 mm 2 mps 705 mmHg 86%
    Show more